Location: La Silve
(44.2414°N, 5.8889°E)
Time: 09:42:13
(UTC+00:00)

Cosmos 2218 Rocket - Pass Details

Date: 01 December 2020
Orbit: 956 x 1005 km, 82.9° (Epoch: 25 January)

Event Time Altitude Azimuth Distance (km) Brightness Sun altitude
Rises 16:29:06 0° 357° (N) 3,648 6.8 -5.6°
Reaches altitude 10° 16:31:44 10° 3° (N) 2,697 6.1 -6.1°
Maximum altitude 16:37:37 45° 76° (ENE) 1,285 4.3 -7.0°
Drops below altitude 10° 16:43:28 10° 148° (SSE) 2,691 6.2 -8.0°
Sets 16:46:05 0° 154° (SSE) 3,638 7.0 -8.4°
